Flight Track Log - Related Links

Times and Time Zones

All times are in EDT time to prevent confusion due to time zone crossing. See the RPA3446 flight status page for this flight to view local times or setup timezone preferences in your user account.

Time Position Orientation Groundspeed Altitude Reporting Facility
EDT Latitude Longitude Course Direction KTS MPH feet Rate Location/Type
Fri 06:22:46 PM 39.0500 -84.6833 47° Northeast 163 188 1,600  Level Cincinnati TRACON
Fri 06:23:34 PM 39.0500 -84.7333 270° West 172 198 3,100 2,000 Climbing Cincinnati TRACON
Fri 06:24:34 PM 39.0500 -84.8167 270° West 268 308 5,200 3,158 Climbing Cincinnati TRACON
Fri 06:25:00 PM 38.9721 -84.3504 67° East  Level FlightAware Approximate
Fri 06:25:28 PM 39.1333 -84.8333 351° North 295 339 9,100  Level Cincinnati TRACON
Fri 06:26:00 PM 39.0151 -84.2290 63° Northeast  Level FlightAware Approximate
Fri 06:26:35 PM 39.1944 -84.8050 20° North 287 330 11,000  Level Indianapolis Center
Fri 06:27:00 PM 39.0791 -84.1262 44° Northeast  Level FlightAware Approximate
Fri 06:27:37 PM 39.2397 -84.7058 59° Northeast 317 365 13,200  Level Indianapolis Center
Fri 06:28:00 PM 39.1418 -84.0249 47° Northeast  Level FlightAware Approximate
Fri 06:28:39 PM 39.2475 -84.5714 86° East 325 374 16,900  Level Indianapolis Center
Fri 06:29:41 PM 39.2378 -84.4514 96° East 334 384 18,300 1,694 Climbing Indianapolis Center
Fri 06:30:43 PM 39.2253 -84.3214 97° East 361 415 20,400 1,887 Climbing Indianapolis Center
Fri 06:31:45 PM 39.2117 -84.1856 97° East 377 434 22,200 1,344 Climbing Indianapolis Center
Fri 06:32:48 PM 39.1989 -84.0458 97° East 390 449 23,200 1,200 Climbing Indianapolis Center
Fri 06:33:50 PM 39.2164 -83.9039 81° East 411 473 24,700 1,500 Climbing Indianapolis Center
Fri 06:34:52 PM 39.2767 -83.7425 64° Northeast 416 479 26,300 1,306 Climbing Indianapolis Center
Fri 06:35:54 PM 39.3303 -83.6022 64° Northeast 431 496 27,400 677 Climbing Indianapolis Center
Fri 06:36:56 PM 39.3856 -83.4553 64° Northeast 450 518 27,700 435 Climbing Indianapolis Center
Fri 06:37:58 PM 39.4442 -83.2981 64° Northeast 480 552 28,300 968 Climbing Indianapolis Center
Fri 06:39:00 PM 39.5136 -83.1125 64° Northeast 483 556 29,700 1,113 Climbing Indianapolis Center
Fri 06:40:02 PM 39.5731 -82.9564 64° Northeast 484 557 30,600 629 Climbing Indianapolis Center
Fri 06:41:04 PM 39.6128 -82.7917 73° East 487 560 31,000 194 Climbing Indianapolis Center
Fri 06:42:06 PM 39.6272 -82.6178 84° East 489 563 31,000  Level Indianapolis Center
Fri 06:43:09 PM 39.6578 -82.4497 77° East 486 559 31,000  Level Indianapolis Center
Fri 06:44:11 PM 39.7719 -82.3044 44° Northeast 485 558 31,000 -194 Level Indianapolis Center
Fri 06:45:13 PM 39.8711 -82.1942 40° Northeast 480 552 30,600 -484 Descending Indianapolis Center
Fri 06:46:15 PM 39.9717 -82.0800 41° Northeast 479 551 30,000 -290 Descending Indianapolis Center
Fri 06:47:17 PM 40.0725 -81.9656 41° Northeast 479 551 30,000 -435 Level Indianapolis Center
Fri 06:48:19 PM 40.1736 -81.8497 41° Northeast 481 554 29,100 -484 Descending Indianapolis Center
Fri 06:49:21 PM 40.2611 -81.6956 53° Northeast 479 551 29,000 -48 Descending Indianapolis Center
Fri 06:50:23 PM 40.2750 -81.5192 84° East 484 557 29,000  Level Indianapolis Center
Fri 06:51:25 PM 40.2806 -81.3428 88° East 485 558 29,000  Level Indianapolis Center
Fri 06:52:27 PM 40.2844 -81.1358 89° East 485 558 29,000  Level Indianapolis Center
Fri 06:53:29 PM 40.2894 -80.9592 88° East 485 558 29,000  Level Indianapolis Center
Fri 06:54:32 PM 40.2925 -80.7836 89° East 485 558 29,000  Level Indianapolis Center
Fri 06:55:34 PM 40.2967 -80.6061 88° East 485 558 29,000  Level Indianapolis Center
Fri 06:56:36 PM 40.2994 -80.4278 89° East 485 558 29,000  Level Indianapolis Center
Fri 06:57:38 PM 40.3031 -80.2522 88° East 484 557 29,000  Level Indianapolis Center
Fri 06:58:40 PM 40.3053 -80.0475 89° East 483 556 29,000  Level Indianapolis Center
Fri 07:00:09 PM 40.3078 -79.8175 89° East 480 552 29,000  Level Cleveland Center
Fri 07:01:11 PM 40.3094 -79.6081 89° East 481 554 29,000  Level Cleveland Center
Fri 07:02:13 PM 40.3117 -79.4325 89° East 482 555 29,000  Level Cleveland Center
Fri 07:03:15 PM 40.3131 -79.2456 89° East 481 554 29,000  Level Cleveland Center
Fri 07:04:17 PM 40.3150 -79.0742 89° East 479 551 29,000  Level Cleveland Center
Fri 07:05:19 PM 40.3164 -78.9036 89° East 478 550 29,000  Level Cleveland Center
Fri 07:06:21 PM 40.3158 -78.7336 90° East 476 548 29,000  Level Cleveland Center
Fri 07:07:24 PM 40.3156 -78.5278 90° East 476 548 29,000  Level Cleveland Center
Fri 07:08:26 PM 40.3164 -78.3572 90° East 476 548 29,000 -774 Level Cleveland Center
Fri 07:09:28 PM 40.3147 -78.1925 91° East 462 532 27,400 -1,645 Descending Cleveland Center
Fri 07:10:30 PM 40.3142 -78.0372 90° East 441 507 25,600 -1,306 Descending Cleveland Center
Fri 07:11:32 PM 40.3061 -77.8861 94° East 427 491 24,700 -1,016 Descending Cleveland Center
Fri 07:12:34 PM 40.2864 -77.7053 98° East 426 490 23,500 -1,065 Descending Cleveland Center
Fri 07:13:36 PM 40.2689 -77.5558 99° East 420 483 22,500 -968 Descending Cleveland Center
Fri 07:14:38 PM 40.2525 -77.4136 99° East 403 464 21,500 -968 Descending Cleveland Center
Fri 07:15:40 PM 40.2164 -77.2764 109° East 400 460 20,500 -978 Descending Cleveland Center
Fri 07:16:53 PM 40.1981 -77.1003 98° East 386 444 19,300 -992 Descending New York Center
Fri 07:17:53 PM 40.1864 -76.9661 96° East 374 430 18,300 -900 Descending New York Center
Fri 07:18:53 PM 40.1739 -76.8453 98° East 374 430 17,500 -650 Descending New York Center
Fri 07:19:53 PM 40.1603 -76.7031 97° East 362 417 17,000 -250 Descending New York Center
Fri 07:20:53 PM 40.1478 -76.5769 97° East 355 409 17,000 -559 Level New York Center
Fri 07:21:51 PM 40.1353 -76.4481 97° East 355 409 15,900 -1,100 Descending New York Center
Fri 07:22:53 PM 40.1239 -76.3358 98° East 350 403 14,800 -950 Descending New York Center
Fri 07:23:51 PM 40.1136 -76.1994 96° East 350 403 14,000 -1,059 Descending New York Center
Fri 07:24:52 PM 40.1047 -76.0767 95° East 350 403 12,700 -1,426 Descending New York Center
Fri 07:25:53 PM 40.1119 -75.9578 85° East 345 397 11,100 -1,587 Descending New York Center
Fri 07:26:53 PM 40.1250 -75.8528 81° East 308 354 9,500 -1,412 Descending New York Center
Fri 07:27:52 PM 40.1372 -75.7586 80° East 297 342 8,300 -1,271 Descending New York Center
Fri 07:28:51 PM 40.1356 -75.6500 91° East 274 315 7,000 -655 Descending New York Center
Fri 07:29:51 PM 40.1036 -75.5689 117° Southeast 274 315 7,000 -98 Level New York Center
Fri 07:30:53 PM 40.0464 -75.4836 131° Southeast 279 321 6,800 -500 Descending New York Center
Fri 07:31:51 PM 39.9808 -75.4547 161° South 279 321 6,000 -407 Descending New York Center
Fri 07:32:51 PM 39.9261 -75.4700 192° South 205 236 6,000 -393 Level New York Center
Fri 07:33:53 PM 39.9047 -75.5364 247° West 184 212 5,200 -496 Descending New York Center
Fri 07:34:52 PM 39.8811 -75.6050 246° West 191 220 5,000 -102 Descending New York Center
Fri 07:35:51 PM 39.8642 -75.6606 248° West 191 220 5,000 -314 Level New York Center
Fri 07:38:03 PM 39.8000 -75.6000 144° Southeast 179 206 4,000 -313 Descending Philadelphia TRACON
Fri 07:39:03 PM 39.8167 -75.5333 72° East 193 222 4,000 -450 Level Philadelphia TRACON
Fri 07:40:03 PM 39.8167 -75.4833 90° East 189 217 3,100 -945 Descending Philadelphia TRACON
Fri 07:41:10 PM 39.8333 -75.4000 75° East 188 216 2,000 -898 Descending Philadelphia TRACON
Fri 07:42:10 PM 39.8500 -75.3500 67° East 132 152 1,200 -750 Descending Philadelphia TRACON
Fri 07:43:10 PM 39.8500 -75.3000 90° East 129 148 500 -700 Descending Philadelphia TRACON
Fri 07:45:00 PM 39.8722 -75.2409 64° Northeast  Level Estimated
Fri 07:52:00 PM 39.8722 -75.2409 247° West  Level Estimated

Login

Don't have an account? Register now (free) for customized features, flight alerts, and more!